This demonstration page uses our WeatherBlox Daily Observations layout. Learn more.

Left ArrowRight Arrow

Hourly Observations for September 8, 2015

Temp ( °F °C ) Dew Point ( °F °C ) Humidity (%) Winds ( mph kmh ) Pressure ( in mb ) Visibility ( mi km ) Precip ( " mm )
12:53 am 00:53 Clear with Mist and Fog 70 21.1 68 20 93 93 Calm 30.03 1017 4 6.43736 0 0
1:53 am 01:53 Clear with Mist and Fog 69 20.6 68 20 96 96 Calm 30.02 1017 5 8.0467 0 0
2:53 am 02:53 Clear with Mist and Fog 68 20 67 19.4 96 96 Calm 30.03 1017 3 4.82802 0 0
3:53 am 03:53 Clear with Mist and Fog 67 19.4 66 18.9 97 97 Calm 30.03 1017 3 4.82802 0 0
4:50 am 04:50 Clear with Mist and Fog 66 19 66 19 100 100 Calm 30.06 1018 1.75 2.816345 0 0
4:53 am 04:53 Clear with Mist and Fog 67 19.4 66 18.9 97 97 Calm 30.03 1017 1.5 2.41401 0 0
5:03 am 05:03 Clear with Mist and Fog 67 19.4 66 18.9 97 97 Calm 30.06 1018 2 3.21868 0 0
5:13 am 05:13 Clear with Mist and Fog 67 19.4 66 18.9 97 97 Calm 30.03 1017 1.75 2.816345 0 0
5:24 am 05:24 Clear with Mist and Fog 67 19.4 66 18.9 97 97 WNW 3 6 30.06 1018 3 4.82802 0 0
5:53 am 05:53 Clear with Mist and Fog 67 19.4 66 18.9 97 97 Calm 30.03 1017 2.5 4.02335 0 0
6:08 am 06:08 Clear with Mist and Fog 67 19.4 66 18.9 97 97 Calm 30.03 1017 3 4.82802 0 0
6:21 am 06:21 Clear with Mist and Fog 66 18.9 65 18.3 96 96 Calm 30.03 1017 2.5 4.02335 0 0
6:38 am 06:38 Mostly Cloudy with Mist and Fog 66 18.9 65 18.3 96 96 Calm 30.03 1017 1 1.60934 0 0
6:45 am 06:45 Mostly Cloudy with Mist and Fog 66 18.9 66 18.9 100 100 Calm 30.03 1017 0.75 1.207005 0 0
6:48 am 06:48 Partly Cloudy with Mist and Fog 66 19 66 19 100 100 Calm 30.03 1017 1.5 2.41401 0 0
6:53 am 06:53 Mostly Cloudy with Mist and Fog 66 18.9 66 18.9 100 100 Calm 30.02 1017 1 1.60934 0 0
7:00 am 07:00 Mostly Cloudy with Fog 66 18.9 65 18.3 96 96 Calm 30.03 1017 0.5 0.80467 0 0
7:17 am 07:17 Sunny with Mist and Fog 66 18.9 65 18.3 96 96 Calm 30.03 1017 1 1.60934 0 0
7:25 am 07:25 Sunny with Mist and Fog 66 18.9 65 18.3 96 96 Calm 30.03 1017 2 3.21868 0 0
7:33 am 07:33 Sunny with Mist and Fog 66 18.9 65 18.3 96 96 Calm 30.03 1017 1.5 2.41401 0 0
7:45 am 07:45 Sunny with Mist and Fog 67 19.4 66 18.9 97 97 Calm 30.03 1017 1.75 2.816345 0 0
7:53 am 07:53 Sunny with Mist and Fog 68 20 67 19.4 96 96 Calm 30.03 1017 2 3.21868 0 0
8:21 am 08:21 Sunny with Mist and Fog 71 21.7 69 20.6 94 94 Calm 30.03 1017 3 4.82802 0 0
8:53 am 08:53 Sunny with Mist and Fog 74 23.3 71 21.7 91 91 Calm 30.02 1017 5 8.0467 0 0
9:53 am 09:53 Sunny 79 26.1 70 21.1 74 74 Calm 30.03 1017 7 11.26538 0 0
10:53 am 10:53 Sunny 83 28.3 69 20.6 63 63 SW 7 11 30.02 1017 10 16.0934 0 0
11:53 am 11:53 Sunny 86 30 69 20.6 57 57 SW 6 9 30.01 1016 10 16.0934 0 0
12:53 pm 12:53 Sunny 88 31.1 67 19.4 50 50 VRB 3 6 29.98 1015 10 16.0934 0 0
1:53 pm 13:53 Mostly Sunny 89 31.7 66 18.9 47 47 VRB 6 9 29.96 1015 10 16.0934 0 0
2:53 pm 14:53 Partly Cloudy 88 31.1 65 18.3 46 46 VRB 6 9 29.95 1014 10 16.0934 0 0
3:53 pm 15:53 Sunny 90 32.2 67 19.4 47 47 SW 9 15 29.91 1013 10 16.0934 0 0
4:53 pm 16:53 Mostly Sunny 89 31.7 66 18.9 47 47 VRB 6 9 29.88 1012 10 16.0934 0 0
5:53 pm 17:53 Sunny 89 31.7 66 18.9 47 47 VRB 6 9 29.88 1012 10 16.0934 0 0
6:53 pm 18:53 Sunny 87 30.6 65 18.3 48 48 SW 6 9 29.89 1012 10 16.0934 0 0
7:53 pm 19:53 Sunny 79 26.1 68 20 69 69 SSW 3 6 29.89 1012 10 16.0934 0 0
8:53 pm 20:53 Clear 74 23.3 68 20 82 82 Calm 29.91 1013 10 16.0934 0 0
9:53 pm 21:53 Clear 74 23.3 68 20 82 82 Calm 29.91 1013 10 16.0934 0 0
10:53 pm 22:53 Clear 75 23.9 67 19.4 76 76 Calm 29.9 1013 10 16.0934 0 0
11:53 pm 23:53 Clear 73 22.8 67 19.4 81 81 Calm 29.89 1012 10 16.0934 0 0

Powered by AerisWeather